Central Point, OR

4:55 PM PST on February 26, 2017 (GMT -0800)
Rogue Valley International-Medford

Weather History for KMFR - May, 2013

Change the Weather History Date:

Monday, May 13, 2013

  Actual Average Record
Temperature  
Mean Temperature 63 °F 59 °F  
Max Temperature 76 °F 73 °F 95 °F (1973)
Min Temperature 50 °F 46 °F 31 °F (1916)
Degree Days  
Heating Degree Days 2 7  
Month to date heating degree days 14 105  
Since 1 July heating degree days 3885 4104  
Cooling Degree Days 0 1  
Month to date cooling degree days 33 12  
Year to date cooling degree days 35 15  
Growing Degree Days 14 (Base 50)    
Moisture  
Dew Point 43 °F    
Average Humidity 48    
Maximum Humidity 71    
Minimum Humidity 25    
Precipitation  
Precipitation 0.00 in 0.05 in 0.61 in (1941)
Month to date precipitation 0.15 0.57  
Year to date precipitation 3.20 8.10  
Snow  
Snow 0.00 in 0.00 in - ()
Month to date snowfall 0.0 0.0  
Since 1 July snowfall 1.7 4.1  
Snow Depth 0.00 in    
Sea Level Pressure  
Sea Level Pressure 30.08 in    
Wind  
Wind Speed 6 mph (NW)    
Max Wind Speed 20 mph    
Max Gust Speed 25 mph    
Visibility 10 miles    
Events      
T = Trace of Precipitation, MM = Missing Value Source: NWS Daily Summary

Daily Weather History Graph

Daily Weather History Graph

Search for Another Location

Airport or City:

Trip Planner

Search our weather history database for the weather conditions in past years. The results will help you decide how hot, cold, wet, or windy it might be!

Date:

Astronomy

May. 13, 2013 Rise Set
Actual Time 5:51 AM PDT 8:24 PM PDT
Civil Twilight 5:19 AM PDT 8:56 PM PDT
Nautical Twilight 4:39 AM PDT 9:36 PM PDT
Astronomical Twilight 3:54 AM PDT 10:22 PM PDT
Moon 8:42 AM PDT (5/13) 11:37 PM PDT (5/13)
Length of Visible Light 15h 36m
Length of Day
14h 32m
Waxing Crescent, 13% of the Moon is Illuminated
May 13
Waxing Crescent
May 17
First Quarter
May 24
Full
May 31
Last Quarter
Jun 8
New

Hourly Weather History & Observations

Time (PDT) Temp. Dew Point Humidity Pressure Visibility Wind Dir Wind Speed Gust Speed Precip Events Conditions
12:53 AM 61.0 °F 42.1 °F 50% 30.04 in 10.0 mi Calm Calm - N/A   Clear
1:53 AM 62.1 °F 39.9 °F 44% 30.04 in 10.0 mi SW 3.5 mph - N/A   Clear
2:53 AM 59.0 °F 42.1 °F 53% 30.05 in 10.0 mi Calm Calm - N/A   Clear
3:53 AM 55.0 °F 43.0 °F 64% 30.05 in 10.0 mi Calm Calm - N/A   Clear
4:53 AM 54.0 °F 43.0 °F 66% 30.05 in 10.0 mi SSW 5.8 mph - N/A   Clear
5:53 AM 51.1 °F 42.1 °F 71% 30.06 in 10.0 mi Calm Calm - N/A   Clear
6:53 AM 54.0 °F 43.0 °F 66% 30.08 in 10.0 mi Calm Calm - N/A   Clear
7:53 AM 57.9 °F 43.0 °F 58% 30.09 in 10.0 mi Calm Calm - N/A   Clear
8:53 AM 63.0 °F 45.0 °F 52% 30.09 in 10.0 mi NNW 3.5 mph - N/A   Clear
9:53 AM 68.0 °F 46.9 °F 47% 30.09 in 10.0 mi Calm Calm - N/A   Scattered Clouds
10:53 AM 70.0 °F 46.9 °F 44% 30.09 in 10.0 mi SE 3.5 mph - N/A   Clear
11:53 AM 73.0 °F 48.0 °F 41% 30.08 in 10.0 mi Calm Calm - N/A   Scattered Clouds
1:53 PM 75.9 °F 44.1 °F 32% 30.07 in 10.0 mi NNW 9.2 mph - N/A   Overcast
2:53 PM 75.0 °F 43.0 °F 32% 30.08 in 10.0 mi NW 16.1 mph 24.2 mph N/A   Mostly Cloudy
3:53 PM 75.0 °F 41.0 °F 29% 30.08 in 10.0 mi WNW 16.1 mph 24.2 mph N/A   Mostly Cloudy
4:53 PM 75.2 °F 39.2 °F 27% 30.10 in 10.0 mi WNW 15.0 mph 21.9 mph N/A   Scattered Clouds
5:53 PM 73.9 °F 36.0 °F 25% 30.08 in 10.0 mi WNW 13.8 mph - 0.01 in   Clear
6:53 PM 73.0 °F 37.0 °F 27% 30.08 in 10.0 mi WNW 15.0 mph 20.7 mph N/A   Clear
7:53 PM 70.0 °F 39.0 °F 32% 30.08 in 10.0 mi WNW 12.7 mph - N/A   Clear
8:53 PM 63.0 °F 46.0 °F 54% 30.11 in 10.0 mi NNE 10.4 mph - N/A   Clear
9:53 PM 59.0 °F 45.0 °F 60% 30.13 in 10.0 mi North 6.9 mph - N/A   Clear
10:53 PM 59.0 °F 44.1 °F 58% 30.14 in 10.0 mi NNW 6.9 mph - N/A   Clear
11:53 PM 55.9 °F 44.1 °F 64% 30.14 in 10.0 mi Calm Calm - N/A   Clear